Weather in Ross'

Belarus     53°17′03″N   24°24′30″E
temp.,
°C
wind,
m/s
gust,
m/s
humid.,
%
clouds,
%
prec.,
mm/h
press.,
hPa
HPBL,
m
15 may, sat
sat1500:00+11w118917 0.0 100310
03:00+10w229232 0.0 100413
06:00+10w339545 0.2 100557
09:00+14wnw348731 0.3 1006392
12:00+16w557677 0.4 1007892
15:00+16wsw667756 1.1 1007856
18:00+14wsw567593 0.1 1008911
21:00+13wsw237649 0.1 100873
16 may, sun
sun1600:00+10wsw22925 0.0 100916
03:00+9ssw229224 0.0 101014
06:00+8s2292100 0.0 101022
09:00+13sse3478100 0.0 1010335
12:00+18sse4562100 0.0 10091243
15:00+19se785964 0.3 10081733
18:00+18se597267 0.6 10061112
21:00+15se51189100 2.4 1006316
17 may, mon
mon1700:00+13sse3695100 0.9 1005134
03:00+13s3796100 1.3 1005322
06:00+12ssw4795100 0.1 1006523
09:00+12wsw3488100 0.1 1007373
12:00+16wnw226339 0.0 10071270
15:00+17wnw225671 0.1 10061347
18:00+18ne115539 0.0 10051415
21:00+14e227511 0.1 100514
18 may, tue
tue1800:00+11e228011 0.0 100416
03:00+10e228795 0.0 100318
06:00+9ssw2391100 0.0 100344
09:00+12w6789100 0.0 1002520
12:00+10w4891100 0.2 1003522
15:00+14wnw6873100 0.3 10031115
18:00+14w797811 0.6 10031023
21:00+11w611905 1.0 1004511
19 may, wed
wed1900:00+7w39955 0.0 1006228
03:00+6wsw389627 0.0 1007175
06:00+7w369399 0.0 1007204
09:00+10w599129 0.2 1008599
12:00+12wnw8108079 1.5 10091049
15:00+13wnw7107579 3.1 10091457
18:00+13wnw697454 0.6 10101379
21:00+9w48865 0.8 1011172